User: anonymous   Login
Location: Klein M�hlingen
(51.9472°N, 11.7453°E)
Time: 02:49:21
(UTC+00:00)
Language:

Cosmos 1300 - Orbit

View from above orbital plane
View from above orbital plane
View from above satellite
View from above satellite

Ground track
Ground track

The orbit data is extracted from the following two-line orbital elements,

1 12785U 81082A   20192.88254376  .00000413  00000-0  18873-4 0  9998
2 12785  82.5027  45.4033 0001224  42.9971 327.6190 15.17715935121634
Epoch (UTC): 10 July 2020 21:10:51
Eccentricity: 0.0001224
inclination: 82.5027°
perigee height: 512 km
apogee height: 513 km
right ascension of ascending node: 45.4033°
argument of perigee: 42.9971°
revolutions per day: 15.17715935
mean anomaly at epoch: 327.6190°
orbit number at epoch: 12163

The dashed part of the orbit path shows where the satellite is in the earth's shadow,  

DLR